This is the latest recevied weather packets stored in our database for station/object DL7HMX-13. If no packets are shown the sender has not sent any weather packets the latest 10 day(s).
| Time | Temp. | Humidity | Pressure | Rain* | Wind** | Luminosity | Snow |
|---|---|---|---|---|---|---|---|
| 1777428022 | 10° C | 54% | 1020.3 hPa | 0 mm | - | 0 W/m² | - |
| 1777427425 | 10° C | 53% | 1020.2 hPa | 0 mm | - | 0 W/m² | - |
| 1777426828 | 10° C | 54% | 1020.1 hPa | 0 mm | - | 0 W/m² | - |
| 1777426231 | 10.56° C | 56% | 1020.1 hPa | 0 mm | - | 0 W/m² | - |
| 1777425617 | 10° C | 58% | 1020 hPa | 0 mm | - | 0 W/m² | - |
| 1777425020 | 10.56° C | 57% | 1020 hPa | 0 mm | - | 0 W/m² | - |
| 1777424423 | 10.56° C | 58% | 1020 hPa | 0 mm | - | 0 W/m² | - |
| 1777423826 | 11.11° C | 54% | 1019.8 hPa | 0 mm | - | 0 W/m² | - |
| 1777423229 | 11.11° C | 54% | 1019.8 hPa | 0 mm | - | 0 W/m² | - |
| 1777422632 | 10.56° C | 56% | 1019.9 hPa | 0 mm | - | 0 W/m² | - |
| 1777422018 | 10.56° C | 59% | 1019.8 hPa | 0 mm | - | 0 W/m² | - |
| 1777421421 | 10° C | 62% | 1020 hPa | 0 mm | - | 0 W/m² | - |
| 1777420824 | 10° C | 61% | 1020 hPa | 0 mm | - | 0 W/m² | - |
| 1777420227 | 10° C | 63% | 1020 hPa | 0 mm | - | 0 W/m² | - |
| 1777419630 | 9.44° C | 64% | 1020 hPa | 0 mm | - | 0 W/m² | - |
| 1777419016 | 10° C | 62% | 1019.9 hPa | 0 mm | - | 0 W/m² | - |
| 1777418419 | 10° C | 62% | 1019.9 hPa | 0 mm | - | 0 W/m² | - |
| 1777417822 | 10.56° C | 59% | 1019.7 hPa | 0 mm | - | 0 W/m² | - |
| 1777417224 | 10.56° C | 58% | 1019.7 hPa | 0 mm | - | 0 W/m² | - |
| 1777416628 | 11.11° C | 59% | 1019.7 hPa | 0 mm | - | 0 W/m² | - |
| 1777416030 | 11.67° C | 54% | 1019.7 hPa | 0 mm | - | 0 W/m² | - |
| 1777415417 | 11.11° C | 56% | 1019.6 hPa | 0 mm | - | 0 W/m² | - |
| 1777414820 | 11.11° C | 59% | 1019.7 hPa | 0 mm | - | 0 W/m² | - |
| 1777414222 | 11.67° C | 57% | 1019.6 hPa | 0 mm | - | 0 W/m² | - |
| 1777413626 | 11.11° C | 56% | 1019.6 hPa | 0 mm | - | 0 W/m² | - |
* Rain latest hour (hover to see other rain measurements)
** Current wind speed in m/s (hover to see current wind gust speed)